COSMOS 1275 DEB, 42185

Orbit data source: Space-Track

COSMOS 1275 DEB, 42185 is space debris in LEO originally from a launch on Thu, 04 Jun 1981 UTC launched from the Plesetsk Missile And Space Complex (PKMTR). Debris objects in space refer to the collection of defunct objects orbiting the Earth. Examples of debris include non-operational satellites, rocket bodies, and fragments generated from explosions, collisions, or faulty payload assembly.

Loading next visibility...
Identifier
42185, 1981-053SZ
Orbit
LEO
Country
Flag of CISCIS
Related business
Manufacturer
Unknown
Mission
Spacecraft
Bus & Motor
Unknown
Mass
Unknown
Launch date (UTC)
1981-06-04 (45 years ago)
Launch vehicle
Unknown
Launch site
Plesetsk Missile And Space Complex (PKMTR)
Object type
Payload
Rocket body
Debris
Shape & HBR
Unknown shape, 0.1 m
Radar Cross Section
Small (<0.1 m²)

Expand to show TLE details & history
Last TLE update: 1 week ago

TLE from 1 week ago
0 COSMOS 1275 DEB
1 42185U 81053SZ  25345.50030032  .00003347  00000-0  28663-2 0  9993
2 42185  83.0488  67.5536 0112227 292.0093  84.6693 13.83821514207949
Epoch: 2025-12-11T12:00Z
TLE epoch observation values (Epoch: 2025-12-11T12:00:25.947Z)
Latitude
17.815°
Longitude
169.22378°
Altitude
945.986 km
Speed
7.384 km/s
True Right ascension
04h 39m 08s
True Declination
17° 43' 04"
Sunlit
Object was in full shadow at epoch
Visualization orbit readout
Latitude
Unknown
Longitude
Unknown
Altitude
Unknown
Speed
Unknown
Apparent Right ascension
Unknown
Apparent Declination
Unknown
Sunlit
N/A
Visualization observer readout
Local Sidereal Time
21:26:15
Azimuth
Unknown
Elevation
Unknown
Doppler factor
Unknown
Orbital elements
Apogee altitude
1,029.709 km
Perigee altitude
865.282 km
Semi-major axis
7,325.633 km
Eccentricity
0.01122
Inclination
83.0488°
RAAN
67.5536°
Arg. of periapsis
292.0093°
True anomaly
85.95133°
Mean anomaly
84.6693°
Eccentric anomaly
85.31016°
Mean motion
3.46159 °/min
Orbital period
104 mins
BSTAR
0.0028663
Loading maneuver chart data...
Computing Atmospheric mass density...
Loading historical data...
Loading historical data...
Loading historical data...
Loading historical data...
Loading historical data...
Loading historical data...
Loading historical data...

Documentation

Showing up to 5 results
|